This demonstration page uses our WeatherBlox Daily Observations layout. Learn more.

Left ArrowRight Arrow

40.92945, -100.16068

Hourly Observations for April 16, 2016

Temp ( °F °C ) Dew Point ( °F °C ) Humidity (%) Winds ( mph kmh ) Pressure ( in mb ) Visibility ( mi km ) Precip ( " mm )
12:15 am 00:15 Clear 63 17.2 46 7.9 55 55 SE 18 30 29.77 1008 10 16 N/A
12:35 am 00:35 Mostly Cloudy 62 16.7 46 7.9 56 56 SE 14 22 29.77 1008 10 16 N/A
12:55 am 00:55 Cloudy 62 16.5 47 8.1 58 58 SSE 18 30 29.77 1008 10 16 N/A
1:15 am 01:15 Mostly Cloudy 62 16.5 47 8.6 60 60 SSE 18 30 29.77 1008 10 16 N/A
1:35 am 01:35 Cloudy 62 16.5 48 9 61 61 SSE 20 31 29.77 1008 10 16 N/A
1:55 am 01:55 Cloudy 61 16.1 48 9.1 63 63 SSE 18 30 29.80 1009 10 16 N/A
2:15 am 02:15 Cloudy 60 15.8 49 9.2 65 65 SSE 18 30 29.80 1009 10 16 N/A
2:35 am 02:35 Cloudy 60 15.7 49 9.5 67 67 SSE 17 28 29.80 1009 10 16 N/A
2:55 am 02:55 Cloudy 60 15.6 49 9.7 68 68 SSE 20 31 29.80 1009 10 16 N/A
3:15 am 03:15 Cloudy with Light Rain 59 14.9 51 10.3 74 74 S 16 26 29.83 1010 10 16 N/A
3:35 am 03:35 Cloudy with Drizzle 58 14.5 51 10.8 79 79 S 17 28 29.83 1010 10 16 N/A
3:55 am 03:55 Cloudy with Light Rain 57 13.8 52 11.3 85 85 S 17 28 29.83 1010 10 16 N/A
4:15 am 04:15 Cloudy with Drizzle 56 13.6 53 11.4 87 87 S 17 28 29.83 1010 10 16 N/A
4:35 am 04:35 Mostly Cloudy 56 13.5 52 11.1 86 86 S 15 24 29.83 1010 10 16 N/A
4:55 am 04:55 Mostly Cloudy 55 12.8 49 9.5 81 81 S 10 17 29.80 1009 10 16 N/A
5:15 am 05:15 Cloudy 55 12.9 51 10.3 84 84 SSE 14 22 29.80 1009 10 16 N/A
5:35 am 05:35 Partly Cloudy 55 12.6 50 9.8 83 83 SSE 12 19 29.83 1010 10 16 N/A
5:55 am 05:55 Mostly Cloudy 55 12.7 51 10.4 86 86 S 10 17 29.83 1010 10 16 N/A
6:15 am 06:15 Cloudy with Light Rain 55 12.8 52 11.1 90 90 SSW 9 15 29.85 1011 10 16 0.01 0.25
6:35 am 06:35 Cloudy with Drizzle 55 12.8 52 11 89 89 SSW 9 15 29.85 1011 10 16 0.01 0.25
6:55 am 06:55 Cloudy with Drizzle 55 12.7 51 10.8 88 88 SW 3 6 29.85 1011 10 16 0.01 0.25
7:15 am 07:15 Cloudy 55 12.5 51 10.5 88 88 S 5 7 29.85 1011 10 16 N/A
7:35 am 07:35 Cloudy 55 12.5 50 10.2 86 86 SW 8 13 29.88 1012 10 16 N/A
7:55 am 07:55 Cloudy with Light Rain 54 12.3 50 10 86 86 WSW 7 11 29.88 1012 10 16 0.01 0.25
8:15 am 08:15 Cloudy with Light Rain 54 12 50 10.2 89 89 W 6 9 29.91 1013 10 16 N/A
8:35 am 08:35 Cloudy 54 12 51 10.3 89 89 N N/A 29.94 1014 10 16 N/A
8:55 am 08:55 Cloudy with Rain 54 12 51 10.5 91 91 N N/A 29.94 1014 10 16 0.01 0.25
9:15 am 09:15 Cloudy with Drizzle 54 12.1 51 10.7 91 91 ENE 5 7 29.94 1014 10 16 N/A
9:35 am 09:35 Cloudy with Light Rain 54 12.2 51 10.5 89 89 E 6 9 29.94 1014 10 16 N/A
9:55 am 09:55 Cloudy with Light Rain 54 12.3 51 10.3 88 88 ENE 6 9 29.94 1014 10 16 N/A
10:15 am 10:15 Cloudy with Drizzle 54 12.2 51 10.7 91 91 E 3 6 29.97 1015 10 16 0.01 0.25
10:35 am 10:35 Cloudy with Drizzle 55 12.5 52 11.1 91 91 NE 3 6 29.97 1015 10 16 0.01 0.25
10:55 am 10:55 Cloudy with Rain 55 12.7 53 11.4 92 92 ENE 3 6 29.97 1015 10 16 0.01 0.25
11:15 am 11:15 Cloudy with Rain 56 13.4 54 12 91 91 E 6 9 29.94 1014 7 11 N/A
11:35 am 11:35 Cloudy with Light Rain 56 13.6 54 12.2 91 91 ESE 12 19 29.91 1013 5 8 0.02 0.51
11:55 am 11:55 Cloudy with Light Rain 57 13.7 55 12.5 93 93 SE 15 24 29.94 1014 5 8 0.05 1.27
12:15 pm 12:15 Cloudy with Rain 56 13.5 54 12.3 93 93 SE 14 22 29.94 1014 4 6 0.06 1.52
12:35 pm 12:35 Cloudy 56 13.5 54 12.3 93 93 SE 14 22 29.94 1014 7 11 0.09 2.29
12:55 pm 12:55 Cloudy with Heavy Rain 56 13.5 54 12.2 92 92 SE 15 24 29.94 1014 4 6 0.16 4.06
1:15 pm 13:15 Cloudy with Rain 56 13.5 54 12.1 91 91 SE 15 24 29.94 1014 4 6 0.07 1.78
1:35 pm 13:35 Cloudy with Nearby Thunderstorms 56 13.4 54 12.2 93 93 ESE 14 22 29.94 1014 4 6 0.13 3.30
1:55 pm 13:55 Cloudy with Rain 56 13.3 54 12.1 93 93 ESE 14 22 29.94 1014 5 8 0.19 4.83
2:15 pm 14:15 Cloudy with Rain 56 13.2 54 12 93 93 ESE 13 20 29.94 1014 5 8 0.05 1.27
2:35 pm 14:35 Cloudy with Nearby Thunderstorms 56 13.2 53 11.9 92 92 E 9 15 29.94 1014 5 8 0.10 2.54
2:55 pm 14:55 Cloudy with Rain 56 13.1 53 11.7 91 91 E 10 17 29.94 1014 5 8 0.16 4.06
3:15 pm 15:15 Cloudy with Light Rain 56 13.2 54 12 93 93 E 7 11 29.94 1014 5 8 0.03 0.76
3:35 pm 15:35 Cloudy with Rain 56 13.3 54 12 92 92 E 9 15 29.94 1014 5 8 0.06 1.52
3:55 pm 15:55 Cloudy with Rain 56 13.3 54 12 92 92 E 9 15 29.97 1015 5 8 0.12 3.05
4:15 pm 16:15 Cloudy with Heavy Rain 50 9.8 47 8.2 90 90 NNE 13 20 29.97 1015 5 8 0.07 1.78
4:35 pm 16:35 Cloudy with Light Rain 49 9.3 47 8.2 93 93 NNE 15 24 30.00 1016 7 11 0.10 2.54
4:55 pm 16:55 Cloudy with Rain 48 8.9 46 7.7 92 92 NNE 17 28 30.00 1016 10 16 0.13 3.30
5:15 pm 17:15 Cloudy with Rain 47 8.6 46 7.5 93 93 NNE 16 26 30.00 1016 5 8 0.06 1.52
5:35 pm 17:35 Cloudy with Light Rain 47 8.5 45 7.3 92 92 N 14 22 30.00 1016 7 11 0.12 3.05
5:55 pm 17:55 Windy with Snow Likely 46 7.8 44 6.6 92 92 N 22 35 30.00 1016 1 1 0.17 4.32
6:15 pm 18:15 Cloudy with Snow 46 7.7 44 6.6 93 93 NNE 22 35 30.00 1016 1 2 0.10 2.54
6:35 pm 18:35 Cloudy with Light Rain 46 7.6 44 6.5 93 93 NNE 15 24 30.00 1016 3 5 0.16 4.06
6:55 pm 18:55 Cloudy with Drizzle 46 7.7 44 6.5 92 92 NNE 14 22 30.03 1017 10 16 0.17 4.32
7:15 pm 19:15 Cloudy with Heavy Rain 46 7.8 44 6.6 92 92 N 16 26 30.03 1017 3 4 0.05 1.27
7:35 pm 19:35 Cloudy with Light Rain 46 7.6 44 6.5 93 93 N 5 7 30.06 1018 1 2 0.24 6.10
7:55 pm 19:55 Cloudy with Light Rain 45 7.3 43 6.1 92 92 NNE 24 39 30.00 1016 2 3 0.37 9.40
8:15 pm 20:15 Cloudy with Light Rain 45 7.1 43 6 93 93 NNE 17 28 30.03 1017 10 16 0.03 0.76
8:35 pm 20:35 Cloudy with Light Rain 45 7.1 43 6 93 93 NE 18 30 30.03 1017 7 11 0.06 1.52
8:55 pm 20:55 Cloudy with Light Rain 45 7.1 43 6 93 93 NNE 23 37 30.03 1017 7 11 0.14 3.56
9:15 pm 21:15 Cloudy with Rain 45 7 42 5.8 92 92 NNE 23 37 30.03 1017 5 8 0.06 1.52
9:35 pm 21:35 Cloudy with Light Rain 45 7 42 5.8 92 92 NNE 24 39 30.03 1017 10 16 0.08 2.03
9:55 pm 21:55 Cloudy with Drizzle 45 7 42 5.7 92 92 NE 17 28 30.03 1017 10 16 0.09 2.29
10:15 pm 22:15 Cloudy with Light Rain 44 6.8 42 5.6 92 92 NE 22 35 30.03 1017 7 11 0.03 0.76
10:35 pm 22:35 Cloudy with Light Rain 44 6.6 42 5.5 93 93 NE 21 33 30.09 1019 10 16 0.08 2.03
10:55 pm 22:55 Cloudy with Rain 44 6.8 42 5.6 92 92 NNE 21 33 30.09 1019 5 8 0.18 4.57
11:15 pm 23:15 Cloudy with Rain 43 6.3 41 5.1 92 92 NE 17 28 30.09 1019 5 8 0.12 3.05
11:35 pm 23:35 Windy with Snow Likely 43 6.2 41 5.1 93 93 NNE 23 37 30.06 1018 2 3 0.26 6.60
11:55 pm 23:55 Cloudy with Light Rain 43 6.1 41 5 93 93 NE 23 37 30.06 1018 5 8 0.35 8.89

Powered by AerisWeather